This demonstration page uses our WeatherBlox Daily Observations layout. Learn more.

Left ArrowRight Arrow

30.21309, -93.2044

Hourly Observations for August 25, 2020

Temp ( °F °C ) Dew Point ( °F °C ) Humidity (%) Winds ( mph kmh ) Pressure ( in mb ) Visibility ( mi km ) Precip ( " mm )
12:15 am 00:15 Clear 80 26.7 71 21.9 75 75 NE 6 9 29.91 1013 10 16 0.00 0.00
12:35 am 00:35 Clear 80 26.4 71 21.9 76 76 NE 6 9 29.91 1013 10 16 0.00 0.00
12:55 am 00:55 Clear 79 26.3 71 21.9 77 77 NE 5 7 29.91 1013 10 16 0.00 0.00
1:15 am 01:15 Clear 79 25.9 72 22 79 79 NE 5 7 29.91 1013 10 16 0.00 0.00
1:35 am 01:35 Clear 79 25.9 72 22 79 79 NE 5 7 29.91 1013 10 16 0.00 0.00
1:55 am 01:55 Clear 78 25.6 72 22 81 81 NNE 3 6 29.91 1013 10 16 0.00 0.00
2:15 am 02:15 Clear 77 25.2 72 22 82 82 NNE 5 7 29.91 1013 10 16 0.00 0.00
2:35 am 02:35 Clear 77 25.1 71 21.9 82 82 N 5 7 29.90 1013 10 16 0.00 0.00
2:55 am 02:55 Clear 77 25 71 21.9 83 83 N 5 7 29.90 1013 10 16 0.00 0.00
3:15 am 03:15 Clear 77 24.9 72 22 84 84 N 6 9 29.90 1013 10 16 0.00 0.00
3:35 am 03:35 Clear 76 24.7 72 22 85 85 N 7 11 29.90 1013 10 16 0.00 0.00
3:55 am 03:55 Clear 76 24.4 72 22.1 87 87 NNE 7 11 29.89 1012 10 16 0.00 0.00
4:15 am 04:15 Clear 76 24.2 72 22.1 88 88 N 6 9 29.89 1012 10 16 0.00 0.00
4:35 am 04:35 Clear 76 24.2 72 22.1 88 88 N 6 9 29.90 1013 10 16 0.00 0.00
4:55 am 04:55 Clear 75 24 72 22.1 89 89 N 5 7 29.89 1012 10 16 0.00 0.00
5:15 am 05:15 Clear 75 23.9 72 22.1 90 90 N 6 9 29.89 1012 10 16 0.00 0.00
5:35 am 05:35 Clear 75 24 72 22.1 89 89 N 6 9 29.89 1012 10 16 0.00 0.00
6:00 am 06:00 Mostly Clear 75 24 72 22 89 89 N 8 13 29.89 1012 10 16 0.00 0.00
6:47 am 06:47 Mostly Sunny 75 24 72 22 89 89 N 8 13 29.89 1012 10 16 0.00 0.00
7:35 am 07:35 Cloudy 75 24 72 22 89 89 NNE 7 11 29.90 1013 10 16 0.00 0.00
7:50 am 07:50 Cloudy 75 24 73 23 94 94 NNE 7 11 29.90 1013 10 16 0.00 0.00
8:48 am 08:48 Mostly Cloudy 79 26 73 23 84 84 NNE 8 13 29.90 1013 10 16 0.00 0.00
9:45 am 09:45 Mostly Cloudy 81 27 73 23 79 79 NNE 10 17 29.90 1013 10 16 0.00 0.00
10:47 am 10:47 Cloudy 82 28 75 24 79 79 NNE 13 20 29.90 1013 10 16 0.00 0.00
12:45 pm 12:45 Cloudy with Light Rain 81 27 75 24 84 84 NE 13 20 29.90 1013 5 8 0.00 0.00
1:55 pm 13:55 Mostly Cloudy 84 29 77 25 79 79 NNW 13 20 29.87 1011 10 16 0.00 0.00
2:46 pm 14:46 Mostly Cloudy 84 29 77 25 79 79 N 10 17 29.85 1011 10 16 0.00 0.00
3:55 pm 15:55 Mostly Cloudy with Light Rain 82 28 79 26 89 89 NNE 9 15 29.85 1011 3 5 0.00 0.00
4:50 pm 16:50 Mostly Cloudy 82 28 79 26 89 89 Calm 29.85 1011 10 16 0.00 0.00
5:50 pm 17:50 Mostly Cloudy 82 28 79 26 89 89 NNE 8 13 29.84 1010 10 16 0.00 0.00
6:50 pm 18:50 Mostly Cloudy 84 29 79 26 84 84 NNE 7 11 29.84 1010 10 16 0.00 0.00
7:55 pm 19:55 Mostly Cloudy 81 27 75 24 84 84 ENE 10 17 29.86 1011 10 16 0.00 0.00
8:50 pm 20:50 Mostly Cloudy 79 26 75 24 89 89 E 7 11 29.87 1011 10 16 0.00 0.00
9:50 pm 21:50 Mostly Clear 79 26 75 24 89 89 ENE 6 9 29.87 1011 10 16 0.00 0.00
10:15 pm 22:15 Clear 79 26 77 24.8 93 93 ENE 8 13 29.88 1012 10 16 0.00 0.00
10:35 pm 22:35 Clear 78 25.7 76 24.7 94 94 NE 5 7 29.88 1012 10 16 0.00 0.00
10:55 pm 22:55 Partly Cloudy 78 25.7 77 24.9 95 95 ENE 5 7 29.88 1012 10 16 0.00 0.00
11:15 pm 23:15 Mostly Cloudy 78 25.7 77 25.1 97 97 NE 6 9 29.87 1011 10 16 0.00 0.00
11:35 pm 23:35 Mostly Cloudy 78 25.8 77 25.2 97 97 NE 6 9 29.87 1011 10 16 0.00 0.00
11:55 pm 23:55 Mostly Cloudy 78 25.8 78 25.3 97 97 ENE 6 9 29.86 1011 10 16 0.00 0.00

Powered by AerisWeather